• In Russia
  • List of Countries
  • For 7 days
  • Water Temperature
  • Satellite Maps
  • Weather Map
  • Weather Widgets
  • user-avatar
    Login

    Hourly Weather Malanje

    Today, 24 January, Wednesday

    Time Temperature Precipitation Wind Pressure Humidity
    00:00 +19°C° 1 mm 2 mps 664 mmHg 98%
    01:00 +19°C° 1 mm 2 mps 664 mmHg 98%
    02:00 +19°C° 1.1 mm 2 mps 664 mmHg 98%
    03:00 +19°C° 1.1 mm 2 mps 664 mmHg 98%
    04:00 +19°C° 1.1 mm 2 mps 664 mmHg 98%
    05:00 +19°C° 0.7 mm 2 mps 664 mmHg 98%
    06:00 +18°C° 0.7 mm 2 mps 665 mmHg 98%
    07:00 +18°C° 0.7 mm 2 mps 665 mmHg 98%
    08:00 +19°C° 0.4 mm 2 mps 665 mmHg 96%
    09:00 +19°C° 0.4 mm 2 mps 666 mmHg 94%
    10:00 +20°C° 0.4 mm 2 mps 666 mmHg 93%
    11:00 +21°C° 0.3 mm 2 mps 666 mmHg 88%
    12:00 +21°C° 0.3 mm 3 mps 666 mmHg 83%
    13:00 +22°C° 0.3 mm 3 mps 665 mmHg 78%
    14:00 +24°C° 0.2 mm 3 mps 665 mmHg 78%
    15:00 +24°C° 0.2 mm 2 mps 664 mmHg 77%
    16:00 +24°C° 0.2 mm 2 mps 664 mmHg 77%
    17:00 +23°C° 0.1 mm 2 mps 664 mmHg 82%
    18:00 +20°C° 0.1 mm 2 mps 664 mmHg 88%
    19:00 +20°C° 0.1 mm 1 mps 664 mmHg 93%
    20:00 +20°C° 0 mm 1 mps 664 mmHg 94%
    21:00 +20°C° 0 mm 1 mps 664 mmHg 95%
    22:00 +19°C° 0 mm 1 mps 665 mmHg 97%
    23:00 +19°C° 0 mm 1 mps 665 mmHg 97%

    Tomorrow, 25 January, Thursday

    Time Temperature Precipitation Wind Pressure Humidity
    00:00 +19°C° 0 mm 1 mps 664 mmHg 97%
    01:00 +18°C° 0 mm 1 mps 664 mmHg 98%
    02:00 +18°C° 0 mm 1 mps 664 mmHg 98%
    03:00 +18°C° 0 mm 1 mps 664 mmHg 97%
    04:00 +18°C° 0 mm 1 mps 663 mmHg 97%
    05:00 +18°C° 0 mm 1 mps 664 mmHg 96%
    06:00 +18°C° 0 mm 1 mps 664 mmHg 95%
    07:00 +19°C° 0 mm 1 mps 665 mmHg 94%
    08:00 +21°C° 0 mm 1 mps 665 mmHg 84%
    09:00 +24°C° 0 mm 1 mps 666 mmHg 74%
    10:00 +26°C° 0 mm 2 mps 666 mmHg 64%
    11:00 +27°C° 0 mm 2 mps 666 mmHg 61%
    12:00 +28°C° 0 mm 2 mps 665 mmHg 58%
    13:00 +28°C° 0 mm 2 mps 665 mmHg 55%
    14:00 +28°C° 0.6 mm 2 mps 664 mmHg 61%
    15:00 +27°C° 0.6 mm 2 mps 663 mmHg 68%
    16:00 +27°C° 0.6 mm 2 mps 663 mmHg 74%
    17:00 +25°C° 0.6 mm 2 mps 663 mmHg 80%
    18:00 +23°C° 0.6 mm 2 mps 663 mmHg 86%
    19:00 +20°C° 0.6 mm 2 mps 663 mmHg 93%
    20:00 +20°C° 0.2 mm 1 mps 664 mmHg 93%
    21:00 +20°C° 0.2 mm 1 mps 664 mmHg 94%
    22:00 +19°C° 0.2 mm 1 mps 665 mmHg 95%
    23:00 +19°C° 0 mm 1 mps 664 mmHg 95%

    Day after tomorrow, 26 January, Friday

    Time Temperature Precipitation Wind Pressure Humidity
    00:00 +19°C° 0 mm 1 mps 664 mmHg 96%
    01:00 +18°C° 0 mm 1 mps 664 mmHg 97%
    02:00 +18°C° 0 mm 1 mps 663 mmHg 97%
    03:00 +18°C° 0 mm 1 mps 663 mmHg 98%
    04:00 +18°C° 0 mm 1 mps 663 mmHg 98%
    05:00 +18°C° 0 mm 1 mps 663 mmHg 98%
    06:00 +19°C° 0 mm 1 mps 664 mmHg 97%
    07:00 +19°C° 0 mm 1 mps 664 mmHg 97%
    08:00 +21°C° 0 mm 1 mps 665 mmHg 87%
    09:00 +24°C° 0 mm 1 mps 666 mmHg 78%
    10:00 +26°C° 0 mm 1 mps 666 mmHg 69%
    11:00 +27°C° 0.1 mm 1 mps 666 mmHg 64%
    12:00 +28°C° 0.1 mm 2 mps 665 mmHg 59%
    13:00 +29°C° 0.1 mm 2 mps 664 mmHg 54%
    14:00 +28°C° 0.5 mm 2 mps 664 mmHg 60%
    15:00 +28°C° 0.5 mm 2 mps 663 mmHg 67%
    16:00 +27°C° 0.5 mm 2 mps 662 mmHg 73%
    17:00 +25°C° 0.8 mm 2 mps 662 mmHg 79%
    18:00 +23°C° 0.8 mm 1 mps 663 mmHg 85%
    19:00 +21°C° 0.8 mm 1 mps 663 mmHg 91%
    20:00 +21°C° 0.1 mm 1 mps 663 mmHg 91%
    21:00 +20°C° 0.1 mm 1 mps 664 mmHg 92%
    22:00 +20°C° 0.1 mm 1 mps 664 mmHg 93%
    23:00 +20°C° 0.1 mm 1 mps 664 mmHg 93%

    27 January, Saturday

    Time Temperature Precipitation Wind Pressure Humidity
    00:00 +19°C° 0.1 mm 1 mps 664 mmHg 94%
    01:00 +19°C° 0.1 mm 1 mps 663 mmHg 95%
    02:00 +19°C° 0 mm 1 mps 663 mmHg 96%
    03:00 +19°C° 0 mm 1 mps 663 mmHg 97%
    04:00 +18°C° 0 mm 1 mps 663 mmHg 98%
    05:00 +19°C° 0 mm 1 mps 663 mmHg 97%
    06:00 +19°C° 0 mm 1 mps 664 mmHg 96%
    07:00 +20°C° 0 mm 1 mps 664 mmHg 95%
    08:00 +22°C° 0.1 mm 1 mps 665 mmHg 87%
    09:00 +24°C° 0.1 mm 1 mps 666 mmHg 78%
    10:00 +27°C° 0.1 mm 1 mps 666 mmHg 70%
    11:00 +27°C° 0.5 mm 1 mps 665 mmHg 67%
    12:00 +28°C° 0.5 mm 1 mps 665 mmHg 63%
    13:00 +29°C° 0.5 mm 1 mps 664 mmHg 60%
    14:00 +28°C° 0.6 mm 1 mps 663 mmHg 64%
    15:00 +28°C° 0.6 mm 1 mps 663 mmHg 68%
    16:00 +27°C° 0.6 mm 1 mps 662 mmHg 72%
    17:00 +26°C° 0.5 mm 1 mps 662 mmHg 78%
    18:00 +24°C° 0.5 mm 1 mps 662 mmHg 83%
    19:00 +22°C° 0.5 mm 1 mps 663 mmHg 88%
    20:00 +21°C° 0 mm 1 mps 663 mmHg 89%
    21:00 +21°C° 0 mm 1 mps 664 mmHg 90%
    22:00 +20°C° 0 mm 1 mps 664 mmHg 91%
    23:00 +20°C° 0 mm 1 mps 664 mmHg 92%

    28 January, Sunday

    Time Temperature Precipitation Wind Pressure Humidity
    00:00 +20°C° 0 mm 1 mps 663 mmHg 92%
    01:00 +19°C° 0 mm 1 mps 663 mmHg 92%
    02:00 +19°C° 0 mm 1 mps 663 mmHg 93%
    03:00 +19°C° 0 mm 1 mps 663 mmHg 93%
    04:00 +19°C° 0 mm 1 mps 663 mmHg 94%
    05:00 +19°C° 0 mm 1 mps 663 mmHg 93%
    06:00 +19°C° 0 mm 1 mps 664 mmHg 93%
    07:00 +18°C° 0 mm 0 mps 664 mmHg 93%
    08:00 +22°C° 0 mm 1 mps 665 mmHg 84%
    09:00 +24°C° 0 mm 1 mps 665 mmHg 76%
    10:00 +27°C° 0 mm 1 mps 666 mmHg 67%
    11:00 +27°C° 0.5 mm 1 mps 665 mmHg 65%
    12:00 +28°C° 0.5 mm 1 mps 664 mmHg 63%
    13:00 +29°C° 0.5 mm 2 mps 664 mmHg 60%
    14:00 +29°C° 0.3 mm 2 mps 663 mmHg 62%
    15:00 +28°C° 0.3 mm 2 mps 663 mmHg 63%
    16:00 +28°C° 0.3 mm 2 mps 662 mmHg 65%
    17:00 +26°C° 0.8 mm 2 mps 663 mmHg 72%
    18:00 +24°C° 0.8 mm 1 mps 663 mmHg 80%
    19:00 +22°C° 0.8 mm 1 mps 663 mmHg 88%
    20:00 +21°C° 0 mm 1 mps 663 mmHg 89%
    21:00 +21°C° 0 mm 1 mps 664 mmHg 91%
    22:00 +20°C° 0 mm 1 mps 664 mmHg 92%
    23:00 +19°C° 0 mm 2 mps 664 mmHg 93%

    29 January, Monday

    Time Temperature Precipitation Wind Pressure Humidity
    00:00 +19°C° 0 mm 2 mps 663 mmHg 93%
    01:00 +18°C° 0 mm 2 mps 663 mmHg 93%
    02:00 +18°C° 0 mm 2 mps 663 mmHg 94%
    03:00 +19°C° 0 mm 1 mps 663 mmHg 95%
    04:00 +19°C° 0 mm 1 mps 663 mmHg 96%
    05:00 +19°C° 0 mm 1 mps 663 mmHg 95%
    06:00 +20°C° 0 mm 1 mps 664 mmHg 95%
    07:00 +20°C° 0 mm 1 mps 664 mmHg 94%
    08:00 +21°C° 0 mm 1 mps 664 mmHg 88%
    09:00 +23°C° 0 mm 1 mps 665 mmHg 82%
    10:00 +24°C° 0 mm 1 mps 665 mmHg 76%
    11:00 +26°C° 0.2 mm 1 mps 665 mmHg 71%
    12:00 +27°C° 0.2 mm 1 mps 664 mmHg 65%
    13:00 +28°C° 0.2 mm 1 mps 664 mmHg 60%
    14:00 +28°C° 0.8 mm 1 mps 663 mmHg 65%
    15:00 +28°C° 0.8 mm 2 mps 663 mmHg 70%
    16:00 +27°C° 0.8 mm 2 mps 663 mmHg 76%
    17:00 +25°C° 0.9 mm 2 mps 663 mmHg 81%
    18:00 +23°C° 0.9 mm 1 mps 663 mmHg 87%
    19:00 +22°C° 0.9 mm 1 mps 663 mmHg 92%
    20:00 +21°C° 0.1 mm 1 mps 664 mmHg 93%
    21:00 +21°C° 0.1 mm 1 mps 664 mmHg 94%
    22:00 +20°C° 0.1 mm 1 mps 664 mmHg 94%
    23:00 +20°C° 0.1 mm 1 mps 664 mmHg 95%
    Show more